Location: Newark
(20.1200°S, 168.9600°E)
Time: 11:29:25
(UTC+00:00)

Hubble Space Telescope - Pass Details

Date: 27 November 2019
Orbit: 536 x 540 km, 28.5° (Epoch: 10 December)

Event Time Altitude Azimuth Distance (km) Brightness Sun altitude
Exits shadow 15:48:04 30° 185° (S) 987 2.3 -26.7°
Drops below altitude 10° 15:51:38 10° 127° (SE) 1,802 4.5 -26.0°
Sets 15:54:07 0° 116° (ESE) 2,694 5.6 -25.6°
